FW4300 Weather Reports


Display with metric or nautical units.
time (UTC)temp
F
wind
direction
speed
MPH
gust
MPH
rain 1hr
in
rain 24hr
in
rain mn
in
humidity
%
barometer
mb
20260509053514 71 310 0.0 0.0 0.00 0.13 0.00 81 1016.4
20260509053021 71 333 0.0 0.0 0.00 0.13 0.00 82 1016.5
20260509052513 71 356 0.0 0.0 0.00 0.13 0.00 81 1016.5
20260509052010 71 8 0.0 0.0 0.00 0.13 0.00 81 1016.6
20260509051510 71 308 0.0 0.0 0.00 0.13 0.00 82 1016.7
20260509051008 71 304 0.0 0.0 0.00 0.13 0.00 82 1016.7
20260509050509 71 320 0.0 0.0 0.00 0.13 0.00 81 1016.8
20260509050020 71 318 0.0 0.0 0.00 0.13 0.00 82 1016.8
20260509045505 71 318 0.0 0.0 0.00 0.13 0.00 82 1016.8
20260509045004 72 321 0.0 0.0 0.00 0.13 0.00 82 1016.8
20260509044504 72 320 0.0 0.0 0.00 0.13 0.00 81 1016.8
20260509044001 72 320 0.0 0.0 0.00 0.13 0.00 81 1017.0
20260509043604 72 319 0.0 0.0 0.00 0.13 0.00 81 1017.0
20260509043104 72 319 0.0 0.0 0.00 0.13 0.00 81 1017.0
20260509042558 72 266 0.0 0.0 0.00 0.13 0.00 81 1017.1
20260509042056 73 264 0.0 0.0 0.00 0.13 0.00 81 1017.2
20260509041555 73 259 0.0 0.0 0.00 0.13 0.00 81 1017.3
20260509041055 73 255 0.0 0.0 0.00 0.13 0.00 81 1017.3
20260509040556 73 255 0.0 0.0 0.00 0.13 0.00 81 1017.3
20260509040052 73 255 0.0 0.0 0.00 0.13 0.00 81 1017.3
20260509035551 73 254 0.0 0.0 0.00 0.13 0.13 81 1017.4
20260509035051 74 248 0.0 0.0 0.00 0.13 0.13 81 1017.4
20260509034556 74 248 0.0 0.0 0.00 0.13 0.13 81 1017.5
20260509034049 74 248 0.0 0.0 0.00 0.13 0.13 81 1017.5
20260509033549 73 248 0.0 0.0 0.00 0.13 0.13 80 1017.4
20260509033103 73 248 0.0 0.0 0.00 0.13 0.13 79 1017.5
20260509032550 73 248 0.0 0.0 0.00 0.13 0.13 78 1017.5
20260509032050 73 248 0.0 0.0 0.00 0.13 0.13 76 1017.5
20260509031548 74 248 0.0 0.0 0.00 0.13 0.13 76 1017.5
20260509031047 74 248 0.0 0.0 0.08 0.13 0.13 75 1017.5
20260509030547 74 244 0.0 0.0 0.13 0.13 0.13 75 1017.6
20260509030048 74 244 0.0 0.0 0.13 0.13 0.13 74 1017.7
20260509025546 74 244 0.0 0.0 0.13 0.13 0.13 73 1017.6
20260509025048 75 244 0.0 0.0 0.13 0.13 0.13 72 1017.6
20260509024557 75 244 0.0 0.0 0.13 0.13 0.13 71 1017.6
20260509024047 75 244 0.0 0.0 0.13 0.13 0.13 71 1017.6
20260509023545 75 251 0.0 0.0 0.13 0.13 0.13 70 1017.6
20260509023046 75 236 0.0 0.0 0.13 0.13 0.13 70 1017.7
20260509022545 75 152 0.0 0.0 0.13 0.13 0.13 69 1017.7
20260509022044 75 130 0.0 0.0 0.13 0.13 0.13 68 1017.7
20260509021544 75 118 0.0 0.0 0.13 0.13 0.13 68 1017.7
20260509021046 76 98 0.0 0.0 0.05 0.05 0.05 67 1017.9
20260509020542 76 131 0.0 0.0 0.00 0.00 0.00 66 1017.7
20260509020046 76 86 0.0 0.0 0.00 0.00 0.00 66 1017.6
20260509015542 76 131 0.0 0.0 0.00 0.00 0.00 65 1017.6
20260509015043 76 132 0.0 0.0 0.00 0.00 0.00 66 1017.5
20260509014540 76 172 0.0 0.0 0.00 0.00 0.00 66 1017.4
20260509014039 76 200 0.0 0.0 0.00 0.00 0.00 65 1017.3
20260509013540 76 182 0.0 0.0 0.00 0.00 0.00 65 1017.4
20260509013046 76 211 0.0 0.0 0.00 0.00 0.00 65 1017.4
20260509012539 76 312 0.0 0.0 0.00 0.00 0.00 66 1017.3
20260509012042 76 312 0.0 0.0 0.00 0.00 0.00 66 1017.3
20260509011539 75 312 0.0 0.0 0.00 0.00 0.00 65 1017.3
20260509011040 75 312 0.0 0.0 0.00 0.00 0.00 65 1017.4
20260509010539 75 312 0.0 0.0 0.00 0.00 0.00 65 1017.2
20260509010039 76 308 0.0 0.0 0.00 0.00 0.00 64 1017.3
20260509005539 77 264 0.0 0.0 0.00 0.00 0.00 65 1017.2
20260509005038 77 212 0.0 0.0 0.00 0.00 0.00 64 1017.2
20260509004552 77 212 0.0 0.0 0.00 0.00 0.00 65 1017.0
20260509004043 78 176 0.0 0.0 0.00 0.00 0.00 64 1017.0
20260509003538 78 200 0.0 0.0 0.00 0.00 0.00 65 1017.0
20260509003041 78 234 0.0 0.0 0.00 0.00 0.00 64 1016.9
20260509002539 78 201 0.0 0.0 0.00 0.00 0.00 64 1016.8
20260509002036 78 206 0.0 0.0 0.00 0.00 0.00 64 1016.7
20260509001537 78 148 0.0 0.0 0.00 0.00 0.00 64 1016.6
20260509001037 78 205 0.0 0.0 0.00 0.00 0.00 64 1016.5
20260509000539 78 205 0.0 0.0 0.00 0.00 0.00 64 1016.4
20260509000043 78 207 0.0 0.0 0.00 0.00 0.00 64 1016.4
20260508235536 78 195 0.0 0.0 0.00 0.00 0.00 64 1016.2
20260508235037 78 229 0.0 0.0 0.00 0.00 0.00 63 1016.2
20260508234537 78 176 0.0 0.0 0.00 0.00 0.00 63 1016.2
20260508234036 78 122 0.0 0.0 0.00 0.00 0.00 63 1016.1
20260508233536 78 117 0.0 0.0 0.00 0.00 0.00 63 1016.1
20260508233036 78 165 0.0 0.0 0.00 0.00 0.00 62 1016.0
20260508232536 79 137 0.0 0.0 0.00 0.00 0.00 62 1016.0
20260508232035 79 105 0.0 0.0 0.00 0.00 0.00 62 1015.9
20260508231544 79 115 0.0 0.0 0.00 0.00 0.00 62 1016.0
20260508231035 79 122 0.0 0.0 0.00 0.00 0.00 62 1015.8
20260508230534 79 92 0.0 0.0 0.00 0.00 0.00 62 1015.8
20260508230034 79 133 0.0 0.0 0.00 0.00 0.00 61 1015.7
20260508225534 80 138 0.0 0.0 0.00 0.00 0.00 61 1015.6
20260508225034 80 150 0.0 0.0 0.00 0.00 0.00 61 1015.6
20260508224555 80 135 0.0 0.0 0.00 0.00 0.00 60 1015.5
20260508224033 80 108 0.0 0.0 0.00 0.00 0.00 59 1015.3
20260508223535 80 131 0.0 0.0 0.00 0.00 0.00 59 1015.2
20260508223033 81 169 0.0 0.0 0.00 0.00 0.00 58 1015.2
20260508222533 81 146 0.0 0.0 0.00 0.00 0.00 57 1015.2
20260508222032 82 134 0.0 0.0 0.00 0.00 0.00 56 1015.2
20260508221535 82 118 0.0 0.0 0.00 0.00 0.00 55 1015.1
20260508221031 82 122 0.0 0.0 0.00 0.00 0.00 55 1015.0
20260508220533 83 113 0.0 0.0 0.00 0.00 0.00 55 1015.0
20260508220034 83 116 0.0 0.0 0.00 0.00 0.00 55 1015.0
20260508215529 83 131 0.0 0.0 0.00 0.00 0.00 56 1014.9
20260508215029 83 134 0.0 0.0 0.00 0.00 0.00 55 1014.9
20260508214538 83 65 0.0 0.0 0.00 0.00 0.00 55 1014.9
20260508214028 83 114 0.0 0.0 0.00 0.00 0.00 56 1014.7
20260508213528 84 130 0.0 0.0 0.00 0.00 0.00 56 1014.8
20260508213032 84 95 0.0 0.0 0.00 0.00 0.00 57 1014.8
20260508212526 84 166 0.0 0.0 0.00 0.00 0.00 57 1014.7
20260508212025 84 143 0.0 0.0 0.00 0.00 0.00 57 1014.7
20260508211525 84 122 0.0 0.0 0.00 0.00 0.00 56 1014.7
20260508211023 84 148 0.0 0.0 0.00 0.00 0.00 57 1014.7
20260508210523 85 162 0.0 0.0 0.00 0.00 0.00 57 1014.6
20260508210023 85 201 0.0 0.0 0.00 0.00 0.00 56 1014.6
20260508205522 85 158 0.0 0.0 0.00 0.00 0.00 57 1014.6
20260508205022 85 205 0.0 0.0 0.00 0.00 0.00 57 1014.6
20260508204523 85 192 0.0 0.0 0.00 0.00 0.00 56 1014.6
20260508204021 85 251 0.0 0.0 0.00 0.00 0.00 56 1014.6
20260508203524 85 158 0.0 0.0 0.00 0.00 0.00 56 1014.6
20260508203022 85 211 0.0 0.0 0.00 0.00 0.00 55 1014.6
20260508202522 86 198 0.0 0.0 0.00 0.00 0.00 54 1014.6
20260508202020 87 149 0.0 0.0 0.00 0.00 0.00 54 1014.6
20260508201520 86 127 0.0 0.0 0.00 0.00 0.00 55 1014.6
20260508201022 87 155 0.0 0.0 0.00 0.00 0.00 54 1014.6
20260508200519 86 117 0.0 0.0 0.00 0.00 0.00 55 1014.7
20260508200030 86 215 0.0 0.0 0.00 0.00 0.00 54 1014.7
20260508195517 87 147 0.0 0.0 0.00 0.00 0.00 53 1014.6
20260508195019 87 195 0.0 0.0 0.00 0.00 0.00 53 1014.7
20260508194516 86 128 0.0 0.0 0.00 0.00 0.00 53 1014.8
20260508194016 86 127 0.0 0.0 0.00 0.00 0.00 54 1014.9
20260508193515 86 204 0.0 0.0 0.00 0.00 0.00 53 1014.9
20260508193014 87 221 0.0 0.0 0.00 0.00 0.00 53 1014.9
20260508192520 87 134 0.0 0.0 0.00 0.00 0.00 52 1015.1
20260508192015 87 153 0.0 0.0 0.00 0.00 0.00 52 1015.1
20260508191511 87 171 0.0 0.0 0.00 0.00 0.00 51 1015.1
20260508191010 87 122 0.0 0.0 0.00 0.00 0.00 51 1015.1
20260508190514 87 127 0.0 0.0 0.00 0.00 0.00 51 1015.1
20260508190016 87 127 0.0 0.0 0.00 0.00 0.00 50 1015.2
20260508185509 87 126 0.0 0.0 0.00 0.00 0.00 50 1015.3
20260508185008 88 145 0.0 0.0 0.00 0.00 0.00 50 1015.2
20260508184513 87 160 0.0 0.0 0.00 0.00 0.00 51 1015.3
20260508184006 87 124 0.0 0.0 0.00 0.00 0.00 51 1015.3
20260508183506 87 148 0.0 0.0 0.00 0.00 0.00 50 1015.4
20260508183005 88 208 0.0 0.0 0.00 0.00 0.00 51 1015.4
20260508182505 87 188 0.0 0.0 0.00 0.00 0.00 51 1015.5
20260508182003 87 233 0.0 0.0 0.00 0.00 0.00 51 1015.6
20260508181614 87 148 0.0 0.0 0.00 0.00 0.00 52 1015.5
20260508181003 86 163 0.0 0.0 0.00 0.00 0.00 52 1015.7
20260508180603 87 122 0.0 0.0 0.00 0.00 0.00 50 1015.6
20260508180107 87 125 0.0 0.0 0.00 0.00 0.00 51 1015.6
20260508175604 86 184 0.0 0.0 0.00 0.00 0.00 50 1015.6
20260508175102 86 160 0.0 0.0 0.00 0.00 0.00 51 1015.7
20260508174559 86 126 0.0 0.0 0.00 0.00 0.00 50 1015.7
20260508174059 86 84 0.0 0.0 0.00 0.00 0.00 51 1015.7
20260508173604 87 166 0.0 0.0 0.00 0.00 0.00 50 1015.7
20260508173106 87 74 0.0 0.0 0.00 0.00 0.00 49 1015.9
20260508172555 87 200 0.0 0.0 0.00 0.00 0.00 50 1015.9
20260508172053 86 131 0.0 0.0 0.00 0.00 0.00 53 1015.9
20260508171554 86 218 0.0 0.0 0.00 0.00 0.00 53 1016.1
20260508171048 86 232 0.0 0.0 0.00 0.00 0.00 52 1016.2
20260508170547 86 200 0.0 0.0 0.00 0.00 0.00 53 1016.2
20260508170047 87 154 0.0 0.0 0.00 0.00 0.00 51 1016.2
20260508165545 86 113 0.0 0.0 0.00 0.01 0.00 52 1016.1
20260508165044 85 120 0.0 0.0 0.00 0.01 0.00 53 1016.3
20260508164543 85 144 0.0 0.0 0.00 0.01 0.00 55 1016.3
20260508164043 86 110 0.0 0.0 0.00 0.01 0.00 53 1016.5
20260508163541 86 136 0.0 0.0 0.00 0.01 0.00 54 1016.5
20260508163046 86 193 0.0 0.0 0.00 0.01 0.00 55 1016.5
20260508162541 86 83 0.0 0.0 0.00 0.01 0.00 55 1016.5
20260508162043 86 136 0.0 0.0 0.00 0.01 0.00 56 1016.5
20260508161540 84 129 0.0 0.0 0.00 0.01 0.00 57 1016.5
20260508161038 85 119 0.0 0.0 0.00 0.01 0.00 56 1016.5
20260508160535 85 165 0.0 0.0 0.00 0.01 0.00 55 1016.5
20260508160039 85 180 0.0 0.0 0.00 0.01 0.00 55 1016.5
20260508155535 86 134 0.0 0.0 0.00 0.10 0.00 55 1016.6
20260508155035 86 134 0.0 0.0 0.00 0.10 0.00 55 1016.6
20260508154534 86 200 0.0 0.0 0.00 0.10 0.00 56 1016.6
20260508154033 86 198 0.0 0.0 0.00 0.10 0.00 54 1016.6
20260508153534 86 134 0.0 0.0 0.00 0.10 0.00 54 1016.5
20260508153033 85 122 0.0 0.0 0.00 0.10 0.00 55 1016.6
20260508152534 86 127 0.0 0.0 0.00 0.10 0.00 55 1016.7
20260508152030 86 174 0.0 0.0 0.00 0.10 0.00 53 1016.6
20260508151529 86 126 0.0 0.0 0.00 0.10 0.00 53 1016.7
20260508151032 86 165 0.0 0.0 0.00 0.10 0.00 54 1016.8
20260508150527 86 176 0.0 0.0 0.00 0.10 0.00 54 1016.9
20260508150036 86 74 0.0 0.0 0.00 0.10 0.00 54 1016.9
20260508145525 86 198 0.0 0.0 0.00 0.10 0.00 54 1016.9
20260508145024 85 175 0.0 0.0 0.00 0.10 0.00 53 1016.9
20260508144538 85 75 0.0 0.0 0.00 0.10 0.00 53 1016.9
20260508144023 85 124 0.0 0.0 0.00 0.10 0.00 54 1016.9
20260508143525 85 139 0.0 0.0 0.00 0.10 0.00 54 1016.9
20260508143033 85 136 0.0 0.0 0.00 0.10 0.00 53 1016.9
20260508142519 85 131 0.0 0.0 0.00 0.10 0.00 53 1017.0
20260508142019 84 129 0.0 0.0 0.00 0.10 0.00 53 1017.0
20260508141523 84 132 0.0 0.0 0.00 0.10 0.00 53 1017.1
20260508141017 84 142 0.0 0.0 0.00 0.10 0.00 53 1017.0
20260508140515 84 202 0.0 0.0 0.00 0.10 0.00 54 1017.2
20260508140014 84 150 0.0 0.0 0.00 0.10 0.00 53 1017.2
20260508135512 84 131 0.0 0.0 0.00 0.10 0.00 54 1017.1
20260508135011 84 110 0.0 0.0 0.00 0.10 0.00 54 1017.1
20260508134510 84 128 0.0 0.0 0.00 0.10 0.00 54 1017.0
20260508134008 84 157 0.0 0.0 0.00 0.10 0.00 54 1017.1
20260508133508 83 113 0.0 0.0 0.00 0.10 0.00 54 1017.1
20260508133007 83 104 0.0 0.0 0.00 0.10 0.00 57 1017.0
20260508132506 83 188 0.0 0.0 0.00 0.10 0.00 56 1017.0
20260508132003 83 109 0.0 0.0 0.00 0.10 0.00 59 1017.0
20260508131503 82 140 0.0 0.0 0.00 0.10 0.00 60 1017.0
20260508131003 82 82 0.0 0.0 0.00 0.10 0.00 60 1016.9
20260508130601 82 117 0.0 0.0 0.00 0.10 0.00 60 1017.0
20260508130100 82 94 0.0 0.0 0.00 0.10 0.00 60 1016.9
20260508125559 82 133 0.0 0.0 0.00 0.11 0.00 60 1017.0
20260508125058 82 152 0.0 0.0 0.00 0.11 0.00 61 1016.9
20260508124601 82 147 0.0 0.0 0.00 0.11 0.00 61 1016.9
20260508124059 82 139 0.0 0.0 0.00 0.11 0.00 61 1016.9
20260508123556 82 113 0.0 0.0 0.00 0.11 0.00 61 1016.9
20260508123055 82 174 0.0 0.0 0.00 0.11 0.00 61 1016.8
20260508122554 82 167 0.0 0.0 0.00 0.11 0.00 62 1016.8
20260508122053 82 134 0.0 0.0 0.00 0.11 0.00 62 1016.8
20260508121551 82 182 0.0 0.0 0.00 0.11 0.00 63 1016.8
20260508121050 81 109 0.0 0.0 0.00 0.11 0.00 63 1016.8
20260508120550 82 127 0.0 0.0 0.00 0.11 0.00 62 1016.8
20260508120048 81 121 0.0 0.0 0.00 0.11 0.00 64 1016.9
20260508115547 80 129 0.0 0.0 0.00 0.11 0.00 64 1016.8
20260508115044 80 197 0.0 0.0 0.00 0.11 0.00 65 1016.8
20260508114542 79 158 0.0 0.0 0.00 0.11 0.00 66 1016.8
20260508114040 77 305 0.0 0.0 0.00 0.11 0.00 69 1016.7
20260508113540 75 306 0.0 0.0 0.00 0.11 0.00 70 1016.7
20260508113100 74 306 0.0 0.0 0.00 0.11 0.00 71 1016.7
20260508112540 73 309 0.0 0.0 0.00 0.11 0.00 72 1016.6
20260508112034 73 310 0.0 0.0 0.00 0.11 0.00 73 1016.6
20260508111534 72 331 0.0 0.0 0.00 0.11 0.00 74 1016.6
20260508111036 72 331 0.0 0.0 0.00 0.11 0.00 76 1016.6
20260508110532 71 333 0.0 0.0 0.00 0.11 0.00 76 1016.7
20260508110034 71 325 0.0 0.0 0.00 0.11 0.00 77 1016.6
20260508105635 71 329 0.0 0.0 0.00 0.11 0.00 78 1016.7
20260508105031 70 337 0.0 0.0 0.00 0.11 0.00 79 1016.7
20260508104532 70 316 0.0 0.0 0.00 0.11 0.00 79 1016.6
20260508104029 70 322 0.0 0.0 0.00 0.11 0.00 79 1016.6
20260508103527 69 324 0.0 0.0 0.00 0.11 0.00 79 1016.6
20260508103027 0 0.0 0.0 0.00 0.11 0.00 1016.5
20260508102523 0 0.0 0.0 0.00 0.11 0.00 1016.5
20260508102021 0 0.0 0.0 0.00 0.11 0.00 1016.5
20260508101527 0 0.0 0.0 0.00 0.11 0.00 1016.5
20260508101019 0 0.0 0.0 0.00 0.11 0.00 1016.4
20260508100516 0 0.0 0.0 0.00 0.11 0.00 1016.4
20260508100016 0 0.0 0.0 0.00 0.11 0.00 1016.2
20260508095519 0 0.0 0.0 0.00 0.11 0.00 1016.3
20260508095013 0 0.0 0.0 0.00 0.11 0.00 1016.2
20260508094511 0 0.0 0.0 0.00 0.11 0.00 1016.3
20260508094009 0 0.0 0.0 0.00 0.11 0.00 1016.3
20260508093508 0 0.0 0.0 0.00 0.11 0.00 1016.2
20260508093012 0 0.0 0.0 0.00 0.11 0.00 1016.2
20260508092504 0 0.0 0.0 0.00 0.11 0.00 1016.2
20260508092003 0 0.0 0.0 0.00 0.11 0.00 1016.2
20260508091600 0 0.0 0.0 0.00 0.11 0.00 1016.1
20260508091059 0 0.0 0.0 0.00 0.11 0.00 1016.1
20260508090558 0 0.0 0.0 0.00 0.11 0.00 1016.1
20260508090100 0 0.0 0.0 0.00 0.11 0.00 1016.1
20260508085554 0 0.0 0.0 0.00 0.11 0.00 1016.0
20260508085052 0 0.0 0.0 0.00 0.11 0.00 1016.0
20260508084550 0 0.0 0.0 0.00 0.11 0.00 1015.9
20260508084050 0 0.0 0.0 0.00 0.11 0.00 1016.0
20260508083548 0 0.0 0.0 0.00 0.11 0.00 1016.0
20260508083047 0 0.0 0.0 0.00 0.11 0.00 1015.9
20260508082545 0 0.0 0.0 0.00 0.11 0.00 1016.0
20260508082042 0 0.0 0.0 0.00 0.11 0.00 1015.9
20260508081541 0 0.0 0.0 0.00 0.11 0.00 1016.0
20260508081038 0 332 0.0 0.0 0.00 0.11 0.00 1016.1
20260508080538 0 332 0.0 0.0 0.00 0.11 0.00 1015.9
20260508080035 69 329 0.0 0.0 0.00 0.11 0.00 78 1015.9
20260508075535 69 311 0.0 0.0 0.00 0.11 0.00 77 1015.9
20260508075031 69 310 0.0 0.0 0.00 0.11 0.00 77 1016.0
20260508074532 70 316 0.0 0.0 0.00 0.11 0.00 77 1015.9
20260508074029 70 324 0.0 0.0 0.00 0.11 0.00 77 1015.9
20260508073530 70 338 0.0 0.0 0.00 0.11 0.00 77 1015.9
20260508073029 70 329 0.0 0.0 0.00 0.11 0.00 77 1015.9
20260508072532 70 326 0.0 0.0 0.00 0.11 0.00 76 1016.0
20260508072026 70 326 0.0 0.0 0.00 0.11 0.00 77 1016.0
20260508071525 70 331 0.0 0.0 0.00 0.11 0.00 77 1016.0
20260508071023 70 331 0.0 0.0 0.00 0.11 0.00 77 1016.0
20260508070526 70 343 0.0 0.0 0.00 0.11 0.00 77 1016.1
20260508070022 70 326 0.0 0.0 0.00 0.11 0.00 77 1016.2
20260508065520 70 6 0.0 0.0 0.00 0.11 0.00 77 1016.3
20260508065022 70 342 0.0 0.0 0.00 0.11 0.00 77 1016.3
20260508064545 70 333 0.0 0.0 0.00 0.11 0.00 77 1016.3
20260508064017 70 329 0.0 0.0 0.00 0.11 0.00 77 1016.3
20260508063516 69 19 0.0 0.0 0.00 0.11 0.00 76 1016.4
20260508063017 70 283 0.0 0.0 0.00 0.11 0.00 76 1016.4
20260508062515 70 320 0.0 0.0 0.00 0.11 0.00 76 1016.3
20260508062013 70 322 0.0 0.0 0.00 0.11 0.00 76 1016.4
20260508061512 70 316 0.0 0.0 0.00 0.11 0.00 76 1016.4
20260508061015 70 322 0.0 0.0 0.00 0.11 0.00 76 1016.4
20260508060511 70 20 0.0 0.0 0.00 0.11 0.00 76 1016.5
20260508060007 70 326 0.0 0.0 0.00 0.11 0.00 75 1016.5
20260508055507 70 325 0.0 0.0 0.00 0.11 0.00 75 1016.5
20260508055005 70 311 0.0 0.0 0.00 0.11 0.00 75 1016.6
20260508054505 70 309 0.0 0.0 0.00 0.11 0.00 75 1016.5
20260508054003 70 309 0.0 0.0 0.00 0.11 0.00 75 1016.7